YAOGAN-31 J

导读 | 豆包AI

YAOGAN-31 J(遥感三十一号J组卫星)是中国于北京时间2021年2月24日8时发射的遥感卫星,由长征四号丙运载火箭在酒泉卫星发射中心送入预定轨道。作为中国遥感系列卫星的组成部分,该卫星主要用于开展空间环境探测与相关技术实验,将服务于国土资源普查、防灾减灾等领域,进一步提升中国遥感卫星的组网观测能力,为国民经济发展提供空间信息支持。

Basic Information
目录编号:
47695
目录名称:
YAOGAN-31 J
国际标识:
2021-014E
轨道中心:
EARTH
卫星名称:
YAOGAN-31 J
卫星全名:
--
卫星状态:
在轨 (已飞行1892 天)
发射日期:
2021-02-24 UTC
国别 :
中国 (CN)
星等 :
--
Orbit Information
数据来源 国际轨道数据 AOE轨道数据
星历时间 2026-05-01T07:16:12+0800
6小时前
查看轨道信息
2026-05-01T05:00:00+0800
9小时前
查看轨道信息
半长轴 7467.194km 7467.189km
偏心率 0.0173171 0.0175336
轨道倾角 63.404° 63.401°
近地点辐角 0.839° 0.837°
升交点赤经 319.051° 319.279°
平近点角 359.290° 261.169°
近地点 959.746km 958.125km
远地点 1218.368km 1219.979km
周期 107.028分钟 107.028分钟
每日圈数 13.454473 13.454484
Detailed Information
使用方式:
暂无
2D Orbit Map
3D Orbit Map
Orbit Altitude Analysis Chart
Orbit Inclination Analysis Chart
Orbit Comprehensive Analysis Chart
View Comprehensive Chart